When you browse on this site, cookies collect data to enhance your experience and personalize the content and advertising you see.
Visit our Privacy Policy to learn more. By continuing to use the site, you agree to this use of cookies and data.
  • In Austria
  • List of Countries
  • For 7 days
  • Water Temperature
  • Weather Map
  • News
  • Weather Widgets
  • user-avatar
    Login

    Hourly Weather Santa Ana Hueytlalpan

    Today, 22 January, Wednesday

    Time Temperature Precipitation Wind Pressure Humidity
    00:00 +8°C° 0 mm 1 mps 589 mmHg 90%
    01:00 +7°C° 0 mm 1 mps 588 mmHg 90%
    02:00 +7°C° 0 mm 1 mps 587 mmHg 89%
    03:00 +6°C° 0 mm 2 mps 587 mmHg 86%
    04:00 +6°C° 0 mm 2 mps 587 mmHg 84%
    05:00 +6°C° 0 mm 2 mps 587 mmHg 81%
    06:00 +8°C° 0 mm 2 mps 588 mmHg 75%
    07:00 +10°C° 0 mm 2 mps 589 mmHg 69%
    08:00 +13°C° 0 mm 2 mps 590 mmHg 63%
    09:00 +15°C° 0 mm 2 mps 591 mmHg 56%
    10:00 +17°C° 0 mm 2 mps 591 mmHg 49%
    11:00 +19°C° 0 mm 2 mps 592 mmHg 41%
    12:00 +19°C° 0 mm 2 mps 591 mmHg 42%
    13:00 +20°C° 0 mm 3 mps 590 mmHg 42%
    14:00 +20°C° 0 mm 3 mps 589 mmHg 42%
    15:00 +18°C° 0 mm 2 mps 589 mmHg 53%
    16:00 +16°C° 0 mm 1 mps 588 mmHg 63%
    17:00 +15°C° 0 mm 1 mps 587 mmHg 73%
    18:00 +14°C° 0 mm 1 mps 587 mmHg 73%
    19:00 +13°C° 0 mm 1 mps 587 mmHg 72%
    20:00 +13°C° 0 mm 1 mps 588 mmHg 71%
    21:00 +13°C° 0 mm 1 mps 588 mmHg 72%
    22:00 +12°C° 0 mm 1 mps 588 mmHg 72%
    23:00 +12°C° 0 mm 1 mps 588 mmHg 73%

    Tomorrow, 23 January, Thursday

    Time Temperature Precipitation Wind Pressure Humidity
    00:00 +12°C° 0 mm 1 mps 587 mmHg 77%
    01:00 +11°C° 0 mm 0 mps 587 mmHg 81%
    02:00 +10°C° 0 mm 0 mps 587 mmHg 84%
    03:00 +11°C° 0 mm 1 mps 586 mmHg 84%
    04:00 +11°C° 0 mm 1 mps 586 mmHg 83%
    05:00 +11°C° 0 mm 1 mps 586 mmHg 82%
    06:00 +13°C° 0 mm 1 mps 587 mmHg 77%
    07:00 +14°C° 0 mm 1 mps 589 mmHg 71%
    08:00 +15°C° 0 mm 1 mps 590 mmHg 65%
    09:00 +16°C° 0.2 mm 1 mps 590 mmHg 62%
    10:00 +17°C° 0.2 mm 2 mps 590 mmHg 59%
    11:00 +18°C° 0.2 mm 2 mps 590 mmHg 56%
    12:00 +18°C° 0.7 mm 2 mps 589 mmHg 60%
    13:00 +17°C° 0.7 mm 2 mps 588 mmHg 64%
    14:00 +17°C° 0.7 mm 2 mps 587 mmHg 68%
    15:00 +15°C° 1 mm 2 mps 587 mmHg 75%
    16:00 +14°C° 1 mm 2 mps 586 mmHg 83%
    17:00 +12°C° 1 mm 1 mps 586 mmHg 90%
    18:00 +12°C° 0.8 mm 1 mps 586 mmHg 90%
    19:00 +11°C° 0.8 mm 1 mps 587 mmHg 89%
    20:00 +11°C° 0.8 mm 1 mps 587 mmHg 89%
    21:00 +10°C° 0.4 mm 2 mps 587 mmHg 88%
    22:00 +10°C° 0.4 mm 2 mps 587 mmHg 87%
    23:00 +10°C° 0.4 mm 2 mps 587 mmHg 87%

    Day after tomorrow, 24 January, Friday

    Time Temperature Precipitation Wind Pressure Humidity
    00:00 +11°C° 0 mm 1 mps 587 mmHg 87%
    01:00 +11°C° 0 mm 1 mps 587 mmHg 86%
    02:00 +11°C° 0 mm 1 mps 586 mmHg 86%
    03:00 +10°C° 0 mm 1 mps 586 mmHg 87%
    04:00 +10°C° 0 mm 1 mps 586 mmHg 88%
    05:00 +10°C° 0 mm 1 mps 586 mmHg 89%
    06:00 +10°C° 0 mm 1 mps 587 mmHg 86%
    07:00 +10°C° 0 mm 0 mps 588 mmHg 83%
    08:00 +11°C° 0 mm 0 mps 589 mmHg 80%
    09:00 +13°C° 0.1 mm 1 mps 589 mmHg 77%
    10:00 +14°C° 0.1 mm 1 mps 590 mmHg 74%
    11:00 +15°C° 0.1 mm 1 mps 590 mmHg 71%
    12:00 +15°C° 0.2 mm 1 mps 589 mmHg 74%
    13:00 +14°C° 0.2 mm 1 mps 588 mmHg 78%
    14:00 +14°C° 0.2 mm 1 mps 587 mmHg 82%
    15:00 +13°C° 0.2 mm 1 mps 587 mmHg 86%
    16:00 +13°C° 0.2 mm 1 mps 587 mmHg 90%
    17:00 +12°C° 0.2 mm 1 mps 587 mmHg 94%
    18:00 +12°C° 0.1 mm 1 mps 587 mmHg 95%
    19:00 +12°C° 0.1 mm 1 mps 587 mmHg 96%
    20:00 +12°C° 0.1 mm 1 mps 588 mmHg 96%
    21:00 +11°C° 0 mm 1 mps 588 mmHg 96%
    22:00 +11°C° 0 mm 1 mps 588 mmHg 96%
    23:00 +11°C° 0 mm 1 mps 588 mmHg 96%

    25 January, Saturday

    Time Temperature Precipitation Wind Pressure Humidity
    00:00 +11°C° 0 mm 1 mps 587 mmHg 95%
    01:00 +11°C° 0 mm 1 mps 587 mmHg 95%
    02:00 +10°C° 0 mm 1 mps 587 mmHg 94%
    03:00 +10°C° 0 mm 1 mps 587 mmHg 94%
    04:00 +10°C° 0 mm 1 mps 587 mmHg 93%
    05:00 +9°C° 0 mm 1 mps 587 mmHg 92%
    06:00 +11°C° 0 mm 1 mps 588 mmHg 87%
    07:00 +12°C° 0 mm 1 mps 589 mmHg 82%
    08:00 +14°C° 0 mm 1 mps 590 mmHg 76%
    09:00 +15°C° 0 mm 1 mps 590 mmHg 69%
    10:00 +18°C° 0 mm 1 mps 591 mmHg 62%
    11:00 +19°C° 0 mm 2 mps 591 mmHg 56%
    12:00 +18°C° 0.1 mm 2 mps 591 mmHg 59%
    13:00 +18°C° 0.1 mm 2 mps 590 mmHg 62%
    14:00 +18°C° 0.1 mm 3 mps 589 mmHg 65%
    15:00 +17°C° 0.2 mm 2 mps 588 mmHg 72%
    16:00 +16°C° 0.2 mm 1 mps 588 mmHg 79%
    17:00 +14°C° 0.2 mm 1 mps 587 mmHg 85%
    18:00 +14°C° 0.1 mm 1 mps 588 mmHg 86%
    19:00 +13°C° 0.1 mm 1 mps 588 mmHg 87%
    20:00 +11°C° 0.1 mm 0 mps 588 mmHg 88%
    21:00 +11°C° 0 mm 0 mps 588 mmHg 86%
    22:00 +11°C° 0 mm 0 mps 588 mmHg 85%
    23:00 +11°C° 0 mm 0 mps 588 mmHg 83%

    26 January, Sunday

    Time Temperature Precipitation Wind Pressure Humidity
    00:00 +12°C° 0 mm 1 mps 588 mmHg 85%
    01:00 +11°C° 0 mm 1 mps 587 mmHg 87%
    02:00 +11°C° 0 mm 1 mps 587 mmHg 88%
    03:00 +10°C° 0 mm 1 mps 587 mmHg 88%
    04:00 +10°C° 0 mm 1 mps 587 mmHg 88%
    05:00 +10°C° 0 mm 1 mps 587 mmHg 88%
    06:00 +12°C° 0 mm 1 mps 588 mmHg 83%
    07:00 +13°C° 0 mm 1 mps 589 mmHg 77%
    08:00 +14°C° 0 mm 0 mps 590 mmHg 71%
    09:00 +16°C° 0.1 mm 1 mps 590 mmHg 67%
    10:00 +17°C° 0.1 mm 2 mps 590 mmHg 62%
    11:00 +18°C° 0.1 mm 2 mps 591 mmHg 58%
    12:00 +17°C° 0.8 mm 2 mps 590 mmHg 64%
    13:00 +17°C° 0.8 mm 2 mps 589 mmHg 69%
    14:00 +16°C° 0.8 mm 2 mps 588 mmHg 75%
    15:00 +15°C° 1 mm 2 mps 588 mmHg 80%
    16:00 +14°C° 1 mm 2 mps 588 mmHg 85%
    17:00 +13°C° 1 mm 2 mps 587 mmHg 90%
    18:00 +13°C° 0.7 mm 1 mps 588 mmHg 92%
    19:00 +12°C° 0.7 mm 1 mps 588 mmHg 93%
    20:00 +12°C° 0.7 mm 1 mps 589 mmHg 95%
    21:00 +12°C° 0.4 mm 1 mps 589 mmHg 96%
    22:00 +11°C° 0.4 mm 1 mps 589 mmHg 96%
    23:00 +11°C° 0.4 mm 1 mps 589 mmHg 97%

    27 January, Monday

    Time Temperature Precipitation Wind Pressure Humidity
    00:00 +11°C° 0.3 mm 1 mps 588 mmHg 97%
    01:00 +11°C° 0.3 mm 1 mps 588 mmHg 97%
    02:00 +11°C° 0.3 mm 1 mps 588 mmHg 97%
    03:00 +11°C° 0.1 mm 1 mps 588 mmHg 97%
    04:00 +10°C° 0.1 mm 1 mps 588 mmHg 97%
    05:00 +10°C° 0.1 mm 1 mps 588 mmHg 97%
    06:00 +11°C° 0.1 mm 1 mps 588 mmHg 95%
    07:00 +11°C° 0.1 mm 1 mps 589 mmHg 94%
    08:00 +11°C° 0.1 mm 1 mps 589 mmHg 93%
    09:00 +12°C° 0.1 mm 1 mps 589 mmHg 87%
    10:00 +13°C° 0.1 mm 1 mps 589 mmHg 82%
    11:00 +14°C° 0.1 mm 1 mps 590 mmHg 76%
    12:00 +15°C° 0.1 mm 2 mps 589 mmHg 75%
    13:00 +15°C° 0.1 mm 2 mps 588 mmHg 73%
    14:00 +15°C° 0.1 mm 2 mps 587 mmHg 72%
    15:00 +14°C° 0.1 mm 2 mps 587 mmHg 77%
    16:00 +13°C° 0.1 mm 2 mps 587 mmHg 82%
    17:00 +13°C° 0.1 mm 1 mps 586 mmHg 87%
    18:00 +12°C° 0 mm 1 mps 587 mmHg 89%
    19:00 +11°C° 0 mm 1 mps 587 mmHg 91%
    20:00 +11°C° 0 mm 1 mps 587 mmHg 93%
    21:00 +10°C° 0 mm 1 mps 587 mmHg 89%
    22:00 +10°C° 0 mm 1 mps 586 mmHg 86%
    23:00 +10°C° 0 mm 1 mps 586 mmHg 83%
    Show more